Regional Weather Roundup
Issued by NWS Newport/Morehead, NC

Current Version | Previous Version | Graphics & Text | Print | Product List | Glossary Off
Versions: 1 2 3 4 5 6 7 8 9 10 11 12 13 14 15 16 17 18 19 20 21 22 23 24 25 26 27 28 29 30 31 32 33 34 35 36 37 38 39 40 41 42 43 44 45 46 47 48 49 50

000
ASUS42 KMHX 062113
RWRMHX
WEATHER ROUNDUP FOR EASTERN NORTH CAROLINA
NATIONAL WEATHER SERVICE NEWPORT/MOREHEAD CITY NC
500 PM EDT MON JUL 06 2015

NOTE: "FAIR" INDICATES FEW OR NO CLOUDS BELOW 12,000 FEET
WITH NO SIGNIFICANT WEATHER AND/OR OBSTRUCTIONS TO VISIBILITY

NCZ015>017-031-032-045>047-102-103-062200-
NORTH COAST

CITY           SKY/WX    TMP DP  RH WIND       PRES   REMARKS
EDENTON          N/A     84  74  70 S10       30.08S
ELIZABETH CITY CLOUDY    84  74  71 S13       30.09F
KITTY HAWK     CLOUDY    83  74  74 S7        30.10S
MANTEO         CLOUDY    82  74  74 SW14      30.11S

$$

NCZ045>047-081-094-103-104-062200-
CENTRAL COAST

CITY           SKY/WX    TMP DP  RH WIND       PRES   REMARKS
FRISCO         PTSUNNY   82  74  76 S12       30.12F
SWANQUARTER      N/A     84 N/A N/A S15       30.06S

$$

NCZ095-097-098-100-101-062200-
SOUTHERN COAST

CITY           SKY/WX    TMP DP  RH WIND       PRES   REMARKS
BEAUFORT       MOSUNNY   84  75  74 S14       30.11S
CEDAR ISLAND     N/A     84 N/A N/A S9G20     30.15S
JACKSONVILLE   SUNNY     85  71  63 S13       30.08F
PINEY ISLAND   PTCLDY   N/A N/A N/A S12       30.10F
WILMINGTON     SUNNY     88  71  57 S12       30.08F


$$

NCZ011>013-027>030-043-044-078>080-089-090>093-098-062200-
COASTAL PLAIN

CITY           SKY/WX    TMP DP  RH WIND       PRES   REMARKS
AHOSKIE        SUNNY     87  70  57 CALM      30.06S
CLINTON        MOSUNNY   90  70  51 S7        30.07F
ELIZABETHTOWN  MOSUNNY   91  67  44 CALM      30.07F
GOLDSBORO      SUNNY     91  68  46 S2        30.04F
GREENVILLE     MOSUNNY   90  70  51 SW7       30.08S
HAVELOCK       SUNNY     88  69  53 S13       30.10F
KENANSVILLE    SUNNY     89  65  45 CALM      30.08F
KINSTON        MOSUNNY   91  66  43 S7        30.07F
NEW BERN       SUNNY     88  71  57 S10G18    30.09F
RICHLANDS      SUNNY     91  70  49 S9        30.07F
ROCKY MOUNT    MOSUNNY   91  68  46 SW14      30.06F
WASHINGTON     MOSUNNY   85  73  65 S7        30.08S
WHITEVILLE     PTSUNNY   88  71  56 S7        30.07F

$$

AMZ130-135-150-152-154-156-158-170-250-252-270-ANZ085-086-088-633-658-670-062200-
MARINE OBSERVATIONS

STATION/POSITION TIME  TEMP    WIND        PRES    WAVE   SWELL
                       AIR SEA DIR/SP/G            HT/PER HT/PER
                 (UTC) (F)     (DEG/KT/KT) (MB)    (FT/S) (FT/S)
CHESAPEAKE LIGHT 2000   78     290/ 10/ 17 1020.3
64 E VA BEACH    2050   78 77  190/ 12/ 16 1019.3    3/ 9   2/ 9
DUCK             2000   80 78  190/ 12/ 16   N/A
2 E DUCK         2011      78                N/A     2/13   2/13
OREGON INLET     2000   81 76  190/ 14/ 17 1019.6
13E OREGON INLT  2030      79                N/A     3/13   2/13
HATTERAS CG      2000   83 80  180/  5/ 12 1019.7
DIAMOND BUOY     2050   80 83  190/ 14/ 16 1019.9    3/ 4   2/ 8
CAPE LOOKOUT     2100   82     180/ 15/ 17 1019.4
BEAUFORT LAB     2000   81 82  180/ 11/ 14 1019.0
30 SE NEW RVR IN NOT AVBL
27 SE WRIGHTSVLE 2000      80  210/ 10/ 12   N/A
5 SE WRIGHTSVLE  2008   80 79  200/ 14/ 19 1019.7
225 S CAPE HAT   2050   81 80  210/ 14/ 16 1022.2    4/ 8   3/ 8
41 SE CHARLESTON 2050   80 83  220/ 10/ 12 1019.5    3/ 8   2/ 8

$$



USA.gov is the U.S. government's official web portal to all federal, state and local government web resources and services.